Location: Atbuku
(36.4936°N, 30.4362°E)
Time: 20:50:53
(UTC+00:00)

Cosmos 1953 Rocket - Pass Details

Date: 11 December 2025
Orbit: 599 x 626 km, 82.5° (Epoch: 10 January)

Event Time Altitude Azimuth Distance (km) Brightness Sun altitude
Rises 15:36:54 0° 3° (N) 2,912 6.8 -10.7°
Reaches altitude 10° 15:39:17 10° 12° (NNE) 2,004 5.9 -11.1°
Maximum altitude 15:43:22 35° 79° (ENE) 1,013 4.1 -11.9°
Drops below altitude 10° 15:47:26 10° 145° (SE) 1,994 6.0 -12.7°
Sets 15:49:48 0° 154° (SSE) 2,896 6.9 -13.1°
